Location: Bronschhofen
(47.4788°N, 9.0353°E)
Time: 19:43:43
(UTC+00:00)

USA 308 - Pass Details

Date: 20 May 2022
Orbit: 549 x 558 km, 54.0° (Epoch: 14 June)

Event Time Altitude Azimuth Distance (km) Brightness Sun altitude
Exits shadow 02:39:07 12° 225° (SW) 1,689 4.6 -9.2°
Maximum altitude 02:42:53 65° 144° (SE) 617 3.0 -8.7°
Drops below altitude 10° 02:47:04 10° 63° (ENE) 1,855 7.0 -8.2°
Sets 02:49:20 0° 61° (ENE) 2,755 8.4 -7.9°
